TimeEDT,TemperatureF,Dew PointF,Humidity,Sea Level PressureIn,VisibilityMPH,Wind Direction,Wind SpeedMPH,Gust SpeedMPH,PrecipitationIn,Events,Conditions,WindDirDegrees,DateUTC
12:15 AM,54.0,24.8,32,30.00,10.0,NW,5.8,-,N/A,,Clear,320,2013-03-20 04:15:00
12:35 AM,54.0,24.6,32,30.00,10.0,NW,4.6,-,N/A,,Clear,320,2013-03-20 04:35:00
12:55 AM,52.3,24.6,34,30.00,10.0,NNW,4.6,-,N/A,,Clear,330,2013-03-20 04:55:00
1:15 AM,52.2,24.8,35,30.01,10.0,NNW,4.6,-,N/A,,Clear,330,2013-03-20 05:15:00
1:35 AM,52.2,25.0,35,30.01,10.0,Calm,Calm,-,N/A,,Clear,0,2013-03-20 05:35:00
1:55 AM,50.9,24.8,36,30.01,10.0,North,3.5,-,N/A,,Clear,350,2013-03-20 05:55:00
2:15 AM,50.4,24.3,36,30.01,10.0,North,3.5,-,N/A,,Clear,350,2013-03-20 06:15:00
2:35 AM,49.8,23.9,36,30.01,10.0,Calm,Calm,-,N/A,,Clear,0,2013-03-20 06:35:00
2:55 AM,49.5,23.0,35,30.02,10.0,Calm,Calm,-,N/A,,Clear,0,2013-03-20 06:55:00
3:15 AM,49.3,22.5,35,30.02,10.0,Calm,Calm,-,N/A,,Clear,0,2013-03-20 07:15:00
3:35 AM,49.1,21.6,34,30.01,10.0,Calm,Calm,-,N/A,,Clear,0,2013-03-20 07:35:00
3:55 AM,48.6,20.1,33,30.01,10.0,NNW,3.5,-,N/A,,Clear,330,2013-03-20 07:55:00
4:15 AM,48.2,19.8,32,30.01,10.0,Calm,Calm,-,N/A,,Clear,0,2013-03-20 08:15:00
4:35 AM,46.9,19.4,34,30.01,10.0,Calm,Calm,-,N/A,,Clear,0,2013-03-20 08:35:00
4:55 AM,46.0,19.8,35,30.01,10.0,Calm,Calm,-,N/A,,Clear,0,2013-03-20 08:55:00
5:15 AM,45.3,19.4,36,30.01,10.0,Calm,Calm,-,N/A,,Clear,0,2013-03-20 09:15:00
5:35 AM,44.6,18.0,34,30.02,10.0,Calm,Calm,-,N/A,,Clear,0,2013-03-20 09:35:00
5:55 AM,44.1,19.0,37,30.03,10.0,Calm,Calm,-,N/A,,Clear,0,2013-03-20 09:55:00
6:15 AM,43.7,18.3,36,30.04,10.0,Calm,Calm,-,N/A,,Clear,0,2013-03-20 10:15:00
6:35 AM,43.0,20.3,40,30.05,10.0,Calm,Calm,-,N/A,,Clear,0,2013-03-20 10:35:00
6:55 AM,42.3,19.4,40,30.05,10.0,Calm,Calm,-,N/A,,Clear,0,2013-03-20 10:55:00
7:15 AM,42.1,18.1,38,30.06,10.0,Calm,Calm,-,N/A,,Clear,0,2013-03-20 11:15:00
7:35 AM,41.2,20.1,43,30.07,10.0,Calm,Calm,-,N/A,,Clear,0,2013-03-20 11:35:00
7:55 AM,42.1,18.1,38,30.09,10.0,Calm,Calm,-,N/A,,Clear,0,2013-03-20 11:55:00
8:15 AM,42.1,19.8,41,30.09,10.0,Calm,Calm,-,N/A,,Clear,0,2013-03-20 12:15:00
8:35 AM,43.3,18.5,37,30.10,10.0,Calm,Calm,-,N/A,,Clear,0,2013-03-20 12:35:00
9:15 AM,46.8,17.8,32,30.10,10.0,North,4.6,-,N/A,,Clear,10,2013-03-20 13:15:00
9:35 AM,47.3,14.0,26,30.11,10.0,North,3.5,-,N/A,,Clear,360,2013-03-20 13:35:00
9:55 AM,47.5,14.5,27,30.12,10.0,North,3.5,-,N/A,,Clear,10,2013-03-20 13:55:00
10:15 AM,48.6,15.8,27,30.13,10.0,NNW,4.6,-,N/A,,Scattered Clouds,340,2013-03-20 14:15:00
10:35 AM,48.7,14.9,26,30.13,10.0,North,5.8,-,N/A,,Clear,360,2013-03-20 14:35:00
10:55 AM,49.6,14.5,25,30.12,10.0,North,5.8,-,N/A,,Scattered Clouds,360,2013-03-20 14:55:00
11:15 AM,49.5,13.6,24,30.12,10.0,North,8.1,-,N/A,,Mostly Cloudy,360,2013-03-20 15:15:00
11:35 AM,50.4,15.1,25,30.12,10.0,North,4.6,-,N/A,,Mostly Cloudy,350,2013-03-20 15:35:00
11:55 AM,50.9,15.8,25,30.11,10.0,NNW,4.6,-,N/A,,Overcast,330,2013-03-20 15:55:00
12:15 PM,52.2,15.4,23,30.11,10.0,North,3.5,-,N/A,,Overcast,350,2013-03-20 16:15:00
12:35 PM,52.3,14.5,22,30.09,10.0,Calm,Calm,-,N/A,,Overcast,0,2013-03-20 16:35:00
12:55 PM,52.9,11.8,19,30.08,10.0,NE,4.6,-,N/A,,Overcast,40,2013-03-20 16:55:00
1:15 PM,54.0,12.0,19,30.07,10.0,Calm,Calm,-,N/A,,Overcast,0,2013-03-20 17:15:00
1:35 PM,53.8,10.9,18,30.05,10.0,Calm,Calm,-,N/A,,Overcast,0,2013-03-20 17:35:00
1:55 PM,54.0,14.7,21,30.04,10.0,North,3.5,-,N/A,,Overcast,360,2013-03-20 17:55:00
2:15 PM,53.8,11.1,18,30.03,10.0,Calm,Calm,-,N/A,,Overcast,0,2013-03-20 18:15:00
2:35 PM,53.8,12.0,19,30.02,10.0,Calm,Calm,-,N/A,,Overcast,0,2013-03-20 18:35:00
2:55 PM,53.4,12.0,19,30.00,10.0,Calm,Calm,-,N/A,,Overcast,0,2013-03-20 18:55:00
3:15 PM,53.4,12.9,20,29.99,10.0,Calm,Calm,-,N/A,,Overcast,0,2013-03-20 19:15:00
3:35 PM,53.8,12.4,19,29.97,10.0,Calm,Calm,-,N/A,,Overcast,0,2013-03-20 19:35:00
3:55 PM,54.0,13.3,20,29.96,10.0,Calm,Calm,-,N/A,,Overcast,0,2013-03-20 19:55:00
4:15 PM,54.7,12.4,19,29.94,10.0,Calm,Calm,-,N/A,,Overcast,0,2013-03-20 20:15:00
4:35 PM,55.2,13.8,19,29.92,10.0,Calm,Calm,-,N/A,,Mostly Cloudy,0,2013-03-20 20:35:00
4:55 PM,54.9,14.7,21,29.91,10.0,SE,3.5,-,N/A,,Scattered Clouds,130,2013-03-20 20:55:00
5:15 PM,55.6,15.8,21,29.91,10.0,SW,3.5,-,N/A,,Scattered Clouds,220,2013-03-20 21:15:00
5:35 PM,55.4,16.5,22,29.90,10.0,SE,4.6,-,N/A,,Mostly Cloudy,130,2013-03-20 21:35:00
5:55 PM,55.8,16.7,22,29.90,10.0,South,3.5,-,N/A,,Scattered Clouds,170,2013-03-20 21:55:00
6:15 PM,54.5,17.6,23,29.90,10.0,South,4.6,-,N/A,,Scattered Clouds,170,2013-03-20 22:15:00
6:35 PM,54.0,19.9,26,29.90,10.0,South,4.6,-,N/A,,Scattered Clouds,170,2013-03-20 22:35:00
6:55 PM,53.4,21.9,29,29.90,10.0,Calm,Calm,-,N/A,,Scattered Clouds,0,2013-03-20 22:55:00
7:15 PM,52.3,23.5,33,29.90,10.0,Calm,Calm,-,N/A,,Mostly Cloudy,0,2013-03-20 23:15:00
7:35 PM,51.1,25.5,37,29.90,10.0,South,4.6,-,N/A,,Mostly Cloudy,170,2013-03-20 23:35:00
7:55 PM,50.0,24.8,37,29.89,10.0,Calm,Calm,-,N/A,,Scattered Clouds,0,2013-03-20 23:55:00
8:15 PM,46.0,29.8,53,29.88,10.0,Calm,Calm,-,N/A,,Clear,0,2013-03-21 00:15:00
8:35 PM,45.1,29.7,55,29.88,10.0,Calm,Calm,-,N/A,,Clear,0,2013-03-21 00:35:00
8:55 PM,43.9,29.5,57,29.87,10.0,Calm,Calm,-,N/A,,Clear,0,2013-03-21 00:55:00
9:15 PM,42.8,30.0,61,29.86,10.0,Calm,Calm,-,N/A,,Clear,0,2013-03-21 01:15:00
9:35 PM,40.5,30.4,67,29.86,10.0,Calm,Calm,-,N/A,,Clear,0,2013-03-21 01:35:00
9:55 PM,40.1,30.7,69,29.86,10.0,Calm,Calm,-,N/A,,Clear,0,2013-03-21 01:55:00
10:15 PM,39.7,30.4,69,29.85,10.0,Calm,Calm,-,N/A,,Clear,0,2013-03-21 02:15:00
10:35 PM,40.1,30.2,68,29.85,10.0,Calm,Calm,-,N/A,,Clear,0,2013-03-21 02:35:00
10:55 PM,39.9,31.1,71,29.84,10.0,South,3.5,-,N/A,,Clear,190,2013-03-21 02:55:00
11:15 PM,38.8,30.7,73,29.83,10.0,Calm,Calm,-,N/A,,Clear,0,2013-03-21 03:15:00
11:35 PM,38.3,31.3,76,29.83,10.0,Calm,Calm,-,N/A,,Clear,0,2013-03-21 03:35:00
11:55 PM,38.3,31.3,76,29.81,10.0,Calm,Calm,-,N/A,,Clear,0,2013-03-21 03:55:00